This demonstration page uses our WeatherBlox Daily Observations layout. Learn more.

Left ArrowRight Arrow

44.8408, -93.29828

Hourly Observations for April 20, 2022

Temp ( °F °C ) Dew Point ( °F °C ) Humidity (%) Winds ( mph kmh ) Pressure ( in mb ) Visibility ( mi km ) Precip ( " mm )
12:53 am 00:53 Cloudy 43 6.1 21 -6.1 42 42 SE 13 20 30.05 1018 10 16 0.00 0.00
1:53 am 01:53 Cloudy 43 6.1 21 -6.1 42 42 SE 10 17 30.03 1017 10 16 0.00 0.00
2:53 am 02:53 Cloudy 43 6.1 21 -6.1 42 42 ESE 15 24 29.98 1015 10 16 0.00 0.00
3:53 am 03:53 Cloudy 43 6.1 22 -5.6 43 43 SE 15 24 29.96 1015 10 16 0.00 0.00
4:53 am 04:53 Cloudy 43 6.1 23 -5 45 45 SE 17 28 29.93 1014 10 16 0.00 0.00
5:53 am 05:53 Cloudy 43 6.1 23 -5 45 45 SE 18 30 29.90 1013 10 16 0.00 0.00
6:53 am 06:53 Cloudy 43 6.1 24 -4.4 47 47 SE 20 31 29.88 1012 10 16 0.00 0.00
7:53 am 07:53 Cloudy 44 6.7 25 -3.9 47 47 SE 17 28 29.86 1011 10 16 0.00 0.00
8:53 am 08:53 Cloudy 45 7.2 27 -2.8 49 49 SE 18 30 29.85 1011 10 16 0.00 0.00
9:53 am 09:53 Cloudy 45 7.2 29 -1.7 54 54 SSE 15 24 29.84 1011 10 16 0.00 0.00
10:53 am 10:53 Cloudy 45 7.2 35 1.7 68 68 SSE 18 30 29.82 1010 10 16 0.00 0.00
11:53 am 11:53 Cloudy 45 7.2 37 2.8 74 74 SSE 17 28 29.80 1009 9 14 0.00 0.00
12:45 pm 12:45 Cloudy with Light Rain 45 7.2 38 3.3 77 77 S 12 19 29.79 1009 7 11 0.00 0.00
12:53 pm 12:53 Cloudy with Light Rain 45 7.2 38 3.3 77 77 SSE 15 24 29.78 1009 5 8 0.00 0.00
1:45 pm 13:45 Cloudy with Light Rain 44 6.7 40 4.4 85 85 S 12 19 29.77 1008 4 6 0.04 1.02
1:53 pm 13:53 Cloudy with Rain 44 6.7 40 4.4 85 85 S 9 15 29.77 1008 5 8 0.06 1.52
2:00 pm 14:00 Cloudy with Rain 44 6.7 40 4.4 85 85 S 12 19 29.77 1008 5 8 0.02 0.51
2:40 pm 14:40 Cloudy with Rain 44 6.7 41 5 89 89 S 13 20 29.78 1009 5 8 0.19 4.83
2:53 pm 14:53 Cloudy with Light Rain 44 6.7 41 5 89 89 S 7 11 29.78 1008 6 10 0.22 5.59
3:18 pm 15:18 Cloudy with Rain 44 6.7 41 5 89 89 SSE 9 15 29.77 1008 4 6 0.04 1.02
3:53 pm 15:53 Cloudy with Light Rain 44 6.7 40 4.4 85 85 S 12 19 29.76 1008 5 8 0.22 5.59
4:21 pm 16:21 Cloudy with Light Rain 45 7.2 41 5 86 86 SSE 6 9 29.76 1008 4 6 0.04 1.02
4:46 pm 16:46 Cloudy with Light Rain 44 6.7 42 5.6 93 93 SSE 5 7 29.76 1008 4 6 0.06 1.52
4:53 pm 16:53 Cloudy with Light Rain 45 7.2 42 5.6 90 90 SSE 6 9 29.75 1008 5 8 0.06 1.52
5:12 pm 17:12 Cloudy with Light Rain 45 7.2 42 5.6 90 90 SSE 5 7 29.76 1008 2 3 0.01 0.25
5:23 pm 17:23 Cloudy with Light Rain 45 7.2 43 6.1 93 93 S 5 7 29.77 1008 3 4 0.01 0.25
5:51 pm 17:51 Cloudy with Light Rain 45 7 43 6 93 93 Calm 29.76 1008 4 6 0.04 1.02
5:53 pm 17:53 Cloudy with Light Rain 45 7.2 43 6.1 93 93 Calm 29.75 1008 4 6 0.04 1.02
6:41 pm 18:41 Cloudy with Light Rain 45 7.2 43 6.1 93 93 Calm 29.77 1008 3 4 0.01 0.25
6:53 pm 18:53 Cloudy with Light Rain 45 7.2 43 6.1 93 93 SSW 3 6 29.77 1008 3 5 0.01 0.25
7:22 pm 19:22 Cloudy with Light Rain 45 7.2 43 6.1 93 93 S 3 6 29.77 1008 5 8 0.01 0.25
7:53 pm 19:53 Cloudy with Mist and Fog 45 7.2 43 6.1 93 93 Calm 29.77 1008 4 6 0.01 0.25
8:53 pm 20:53 Cloudy 45 7.2 43 6.1 93 93 WNW 6 9 29.79 1009 9 14 0.00 0.00
9:06 pm 21:06 Cloudy 45 7.2 42 5.6 90 90 WNW 7 11 29.80 1009 10 16 0.00 0.00
9:21 pm 21:21 Cloudy 44 6.7 42 5.6 93 93 NW 7 11 29.81 1010 10 16 0.00 0.00
9:53 pm 21:53 Mostly Cloudy 42 5.6 40 4.4 92 92 NW 7 11 29.82 1010 10 16 0.00 0.00
10:05 pm 22:05 Partly Cloudy 43 6.1 40 4.4 89 89 WNW 7 11 29.84 1011 10 16 0.00 0.00
10:53 pm 22:53 Mostly Clear with Mist and Fog 42 5.6 40 4.4 92 92 W 6 9 29.85 1011 6 10 0.00 0.00
11:15 pm 23:15 Mostly Cloudy 42 5.6 40 4.4 92 92 WNW 6 9 29.88 1012 9 14 0.00 0.00
11:51 pm 23:51 Mostly Cloudy 43 6 39 4 87 87 WNW 6 9 29.88 1012 10 16 0.00 0.00
11:53 pm 23:53 Mostly Cloudy 42 5.6 39 3.9 89 89 WNW 7 11 29.87 1012 10 16 0.00 0.00

Powered by AerisWeather